Weather WX

World > North America > United States > Ohio

Old Washingtn, Ohio Regional Weather

Lat: 40.02N, Lon: 81.47W
Wx Zone: OHZ058
Feedback

Old Washingtn, OH Regional Weather

Expires:201906260800;;092292
ASUS41 KCLE 260712
RWRCLE
OHIO REGIONAL WEATHER ROUNDUP
NATIONAL WEATHER SERVICE WILMINGTON, OH
300 AM EDT WED JUN 26 2019

NOTE: "FAIR" INDICATES FEW OR NO CLOUDS BELOW 12,000 FEET WITH NO
SIGNIFICANT WEATHER AND/OR OBSTRUCTIONS TO VISIBILITY.


OHZ036-037-039>041-045>050-054>059-063>069-073>076-082>088-260800-
  CENTRAL AND SOUTHEAST OHIO
  
CITY           SKY/WX    TMP DP  RH WIND       PRES   REMARKS
COLUMBUS       FAIR      69  60  73 S3        30.05S                  
OSU AIRPORT    FAIR      68  61  78 S7        30.04F                  
BOLTON FIELD   FAIR      67  62  83 S10G16    30.06F                  
RICKENBACK AFB FAIR      66  61  82 S8        30.05F                  
NEWARK         FAIR      64  61  90 CALM      30.06S                  
MARION         FAIR      68  60  75 S8        30.03F                  
LANCASTER      FAIR      64  61  90 SE3       30.06F                  
ZANESVILLE       N/A     65  61  87 CALM      30.07R                  
NEW PHILLY     FAIR      64  61  90 CALM      30.06S                  
$$
  

SKY/WX - Weather  TMP - Temperature  DP - Dew Point  RH - Relative Humidity
WIND - Wind Direction/Speed PRES - Barometric Pressure VSB - Visibility
WCI - Wind Chill Index E13G22 Wind - East Wind 13 mph/Gusts of 22 mph